Weather History for Medford, WI

Change the Weather History Date:

Wednesday, October 2, 2013

  Actual Average Record
Temperature  
Mean Temperature 52 °F -  
Max Temperature 71 °F 63 °F 89 °F (1976)
Min Temperature 33 °F 39 °F 21 °F (2003)
Degree Days  
Heating Degree Days 13    
Growing Degree Days 2 (Base 50)    
Moisture  
Dew Point 38 °F    
Average Humidity 58    
Maximum Humidity 97    
Minimum Humidity 25    
Precipitation  
Precipitation 0.00 in - - ()
Sea Level Pressure  
Sea Level Pressure 30.03 in    
Wind  
Wind Speed 3 mph (SSE)    
Max Wind Speed 9 mph    
Max Gust Speed -    
Visibility 10 miles    
Events Thunderstorm    
Averages and records for this station are not official NWS values.
T = Trace of Precipitation, MM = Missing Value Source: NWS Daily Summary

Daily Weather History Graph

Daily Weather History Graph

Search for Another Location

Airport:

Trip Planner

Search our weather history database for the weather conditions in past years. The results will help you decide how hot, cold, wet, or windy it might be!

Date:

Astronomy

Oct. 02, 2013 Rise Set
Actual Time 7:00 AM CDT 6:39 PM CDT
Civil Twilight 6:31 AM CDT 7:08 PM CDT
Nautical Twilight 5:57 AM CDT 7:42 PM CDT
Astronomical Twilight 5:22 AM CDT 8:17 PM CDT
Moon 4:28 AM CDT (10/2) 5:18 PM CDT (10/2)
Length of Visible Light 12h 37m
Length of Day
11h 38m
Waning Crescent, 6% of the Moon is Illuminated
Oct 2
Waning Crescent
Oct 4
New
Oct 11
First Quarter
Oct 18
Full
Oct 26
Last Quarter

Hourly Weather History & Observations

Time (CDT) Temp. Windchill Dew Point Humidity Pressure Visibility Wind Dir Wind Speed Gust Speed Precip Events Conditions
12:15 AM 47.7 °F - 36.1 °F 64% 29.98 in 10.0 mi WSW 4.6 mph - N/A   Clear
12:35 AM 47.1 °F - 35.6 °F 64% 29.98 in 10.0 mi West 4.6 mph - N/A   Clear
12:55 AM 48.6 °F - 35.4 °F 60% 29.99 in 10.0 mi SW 3.5 mph - N/A   Clear
1:15 AM 46.0 °F - 35.6 °F 67% 30.00 in 10.0 mi Calm Calm - N/A   Clear
1:35 AM 43.5 °F 40.9 °F 34.9 °F 72% 30.01 in 10.0 mi West 4.6 mph - N/A   Clear
1:55 AM 40.1 °F - 35.8 °F 85% 30.01 in 10.0 mi Calm Calm - N/A   Clear
2:15 AM 39.7 °F 37.6 °F 36.1 °F 87% 30.02 in 10.0 mi SSW 3.5 mph - N/A   Clear
2:35 AM 39.9 °F - 36.0 °F 86% 30.01 in 10.0 mi Calm Calm - N/A   Clear
2:55 AM 39.4 °F - 35.6 °F 86% 30.01 in 10.0 mi Calm Calm - N/A   Clear
3:15 AM 37.4 °F 32.8 °F 34.7 °F 90% 30.02 in 10.0 mi SSW 5.8 mph - N/A   Clear
3:35 AM 38.8 °F 36.5 °F 34.5 °F 84% 30.02 in 10.0 mi SW 3.5 mph - N/A   Clear
3:55 AM 38.8 °F 35.4 °F 34.7 °F 85% 30.03 in 10.0 mi SW 4.6 mph - N/A   Clear
4:15 AM 39.7 °F - 34.9 °F 83% 30.04 in 10.0 mi Calm Calm - N/A   Clear
4:35 AM 39.7 °F - 34.7 °F 82% 30.04 in 10.0 mi Calm Calm - N/A   Clear
4:55 AM 37.8 °F - 34.5 °F 88% 30.04 in 10.0 mi Calm Calm - N/A   Clear
5:15 AM 36.7 °F - 34.0 °F 90% 30.04 in 10.0 mi Calm Calm - N/A   Clear
5:35 AM 35.8 °F - 34.3 °F 94% 30.05 in 10.0 mi Calm Calm - N/A   Clear
5:55 AM 35.8 °F - 34.9 °F 97% 30.05 in 10.0 mi Calm Calm - N/A   Clear
6:15 AM 36.3 °F - 35.1 °F 95% 30.05 in 10.0 mi Calm Calm - N/A   Clear
6:35 AM 34.7 °F 31.8 °F 34.0 °F 97% 30.06 in 10.0 mi South 3.5 mph - N/A   Clear
6:55 AM 34.7 °F - 33.6 °F 96% 30.06 in 10.0 mi Calm Calm - N/A   Clear
7:15 AM 33.6 °F - 32.4 °F 95% 30.07 in 10.0 mi Calm Calm - N/A   Clear
7:35 AM 34.9 °F - 33.6 °F 95% 30.08 in 10.0 mi Calm Calm - N/A   Clear
7:55 AM 36.7 °F - 35.6 °F 96% 30.08 in 10.0 mi Calm Calm - N/A   Clear
8:15 AM 39.6 °F - 37.9 °F 94% 30.08 in 10.0 mi Calm Calm - N/A   Clear
8:35 AM 45.0 °F - 39.9 °F 82% 30.08 in 10.0 mi Calm Calm - N/A   Clear
8:55 AM 48.4 °F - 41.4 °F 77% 30.09 in 10.0 mi Calm Calm - N/A   Clear
9:15 AM 52.7 °F - 41.9 °F 67% 30.09 in 10.0 mi Calm Calm - N/A   Clear
9:35 AM 55.4 °F - 41.9 °F 60% 30.10 in 10.0 mi Calm Calm - N/A   Clear
9:55 AM 57.4 °F - 39.0 °F 50% 30.10 in 10.0 mi Calm Calm - N/A   Clear
10:15 AM 60.1 °F - 40.5 °F 48% 30.10 in 10.0 mi Calm Calm - N/A   Clear
10:35 AM 63.0 °F - 41.7 °F 46% 30.10 in 10.0 mi SSE 3.5 mph - N/A   Clear
10:55 AM 64.4 °F - 39.9 °F 41% 30.11 in 10.0 mi South 6.9 mph - N/A   Clear
11:15 AM 65.3 °F - 35.8 °F 34% 30.10 in 10.0 mi South 6.9 mph - N/A   Clear
11:35 AM 66.6 °F - 36.1 °F 33% 30.10 in 10.0 mi South 5.8 mph - N/A   Clear
11:55 AM 66.9 °F - 34.5 °F 30% 30.09 in 10.0 mi SSW 4.6 mph - N/A   Clear
12:15 PM 66.9 °F - 35.6 °F 31% 30.10 in 10.0 mi Calm Calm - N/A   Clear
12:35 PM 68.5 °F - 35.6 °F 30% 30.09 in 10.0 mi WSW 6.9 mph - N/A   Clear
12:55 PM 69.3 °F - 33.6 °F 27% 30.08 in 10.0 mi SW 4.6 mph - N/A   Clear
1:15 PM 69.1 °F - 33.1 °F 26% 30.07 in 10.0 mi South 5.8 mph - N/A   Clear
1:35 PM 69.8 °F - 33.6 °F 26% 30.06 in 10.0 mi South 6.9 mph - N/A   Clear
1:55 PM 69.4 °F - 33.1 °F 26% 30.06 in 10.0 mi South 3.5 mph - N/A   Clear
2:15 PM 70.5 °F - 36.3 °F 29% 30.05 in 10.0 mi SSE 5.8 mph - N/A   Clear
2:35 PM 71.1 °F - 35.1 °F 27% 30.05 in 10.0 mi SSW 6.9 mph - N/A   Clear
2:55 PM 70.7 °F - 33.3 °F 25% 30.04 in 10.0 mi SE 4.6 mph - N/A   Clear
3:15 PM 71.1 °F - 35.1 °F 27% 30.03 in 10.0 mi South 8.1 mph - N/A   Clear
3:35 PM 70.9 °F - 37.2 °F 29% 30.02 in 10.0 mi South 8.1 mph - N/A   Clear
3:55 PM 70.7 °F - 36.9 °F 29% 30.01 in 10.0 mi South 8.1 mph - N/A   Clear
4:15 PM 70.3 °F - 38.3 °F 31% 30.01 in 10.0 mi SSE 6.9 mph - N/A   Clear
4:35 PM 70.2 °F - 38.7 °F 32% 30.00 in 10.0 mi SSE 8.1 mph - N/A   Clear
4:55 PM 69.3 °F - 38.3 °F 32% 30.01 in 10.0 mi SSE 6.9 mph - N/A   Clear
5:15 PM 68.9 °F - 39.6 °F 34% 30.00 in 10.0 mi SE 5.8 mph - N/A   Clear
5:35 PM 67.8 °F - 39.7 °F 36% 30.00 in 10.0 mi ESE 4.6 mph - N/A   Clear
5:55 PM 66.4 °F - 39.6 °F 37% 30.00 in 10.0 mi ESE 4.6 mph - N/A   Clear
6:15 PM 64.0 °F - 40.8 °F 43% 30.00 in 10.0 mi Calm Calm - N/A   Clear
6:35 PM 59.4 °F - 43.0 °F 55% 30.00 in 10.0 mi Calm Calm - N/A   Clear
6:55 PM 61.0 °F - 41.2 °F 48% 29.99 in 10.0 mi ESE 4.6 mph - N/A   Mostly Cloudy
7:15 PM 60.8 °F - 40.6 °F 47% 29.98 in 10.0 mi ESE 6.9 mph - N/A   Overcast
7:35 PM 60.8 °F - 40.1 °F 46% 29.98 in 10.0 mi ESE 4.6 mph - N/A   Mostly Cloudy
7:55 PM 60.1 °F - 40.6 °F 49% 29.97 in 10.0 mi ESE 5.8 mph - N/A   Mostly Cloudy
8:15 PM 58.8 °F - 40.6 °F 51% 29.97 in 10.0 mi ESE 5.8 mph - N/A   Scattered Clouds
8:35 PM 58.5 °F - 40.6 °F 52% 29.96 in 10.0 mi ESE 6.9 mph - N/A   Clear
8:55 PM 58.5 °F - 41.2 °F 53% 29.96 in 10.0 mi SE 5.8 mph - N/A   Scattered Clouds
9:15 PM 58.5 °F - 41.4 °F 53% 29.96 in 10.0 mi SE 6.9 mph - N/A   Scattered Clouds
9:35 PM 58.3 °F - 41.5 °F 54% 29.95 in 10.0 mi SE 4.6 mph - N/A   Scattered Clouds
9:55 PM 58.5 °F - 41.2 °F 53% 29.95 in 10.0 mi SE 5.8 mph - N/A   Scattered Clouds
10:15 PM 57.2 °F - 41.9 °F 57% 29.96 in 10.0 mi East 3.5 mph - N/A   Mostly Cloudy
10:35 PM 56.7 °F - 43.5 °F 61% 29.96 in 10.0 mi NE 4.6 mph - N/A   Overcast
10:55 PM 56.5 °F - 43.7 °F 62% 29.96 in 10.0 mi ENE 5.8 mph - N/A   Overcast
11:15 PM 55.6 °F - 43.5 °F 64% 29.95 in 10.0 mi East 4.6 mph - N/A   Overcast
11:35 PM 56.3 °F - 42.4 °F 60% 29.94 in 10.0 mi East 5.8 mph - N/A   Mostly Cloudy
11:55 PM 56.3 °F - 42.6 °F 60% 29.93 in 10.0 mi East 9.2 mph - N/A Thunderstorm Thunderstorm